Tracking 18840 objects as of 18-November-2017
HD Live streaming from Space Station
objects crossing your sky now

FENGYUN 1C DEB

Track FENGYUN 1C DEB now!
10-day predictions


NORAD ID: 31330
Int'l Code: 1999-025BQJ
Perigee: 803.2 km
Apogee: 850.3 km
Inclination: 99.0 °
Period: 101.3 minutes
Semi major axis: 7197 km
RCS: 0.0208 m2 (small)
Launch date: May 10, 1999
Source: People's Republic of China (PRC)
Launch site: Taiyaun Space Center, China (TSC)

Note: This is SATELLITE DEBRIS
aabbcc
Your satellite tracking list
Your tracking list is empty




NASA's NSSDC Master Catalog

Two Line Element Set (TLE):
1 31330U 99025BQJ 17322.03780894  .00001835  00000-0  85125-3 0  9990
2 31330  98.9860 343.3068 0032711 149.0182 266.0286 14.21710915549142
Source of the keplerian elements: AFSPC